マクノート彗星

260P/McNaught (2019)

English version
Home page
Updated on December 28, 2022

---------------------------------------------------------------------

・ プロフィール

・ 写真集

・ 軌道要素

Epoch 2019 Aug. 25.0 TT = JDT 2458720.5                                         
T 2019 Sept.  9.95587 TT                                Rudenko                 
q   1.4167136            (2000.0)            P               Q                  
n   0.14302599     Peri.   18.38846     +0.98888131     -0.14075694             
a   3.6212575      Node   349.35529     +0.08127717     +0.78172993             
e   0.6087785      Incl.   15.05218     +0.12453019     +0.60752432             
P   6.89                                                                        
From 6656 observations 2005 May 20-2020 Mar. 10, mean residual 0".7.            

・ 星図

・ 光度変化

        m1 = 9.0 + 5 logΔ + 25.0 log r(t - 15)

---------------------------------------------------------------------

軌道要素はM.P.E.C. 2020-S188に掲載されたものです。
星図はステラナビゲータ Ver.8 (アストロアーツ) で作成したものです。
光度グラフはComet for Windowsで作成したものです。

---------------------------------------------------------------------

Copyright(C) Seiichi Yoshida (comet@aerith.net). All rights reserved.